| time (UTC) | temp F | wind direction | speed MPH | gust MPH | rain 1hr in | rain 24hr in | rain mn in | humidity % | barometer mb |
| 20260510180807 | 55 | 46 | 10.0 | 14.0 | 0.00 | 0.00 | 0.00 | 54 | 1018.0 |
| 20260510180407 | 55 | 45 | 10.0 | 17.0 | 0.00 | 0.00 | 0.00 | 55 | 1018.1 |
| 20260510180207 | 55 | 46 | 9.0 | 17.0 | 0.00 | 0.00 | 0.00 | 54 | 1018.2 |
| 20260510180007 | 55 | 45 | 9.0 | 17.0 | 0.00 | 0.00 | 0.00 | 54 | 1018.2 |
| 20260510175808 | 55 | 45 | 9.0 | 17.0 | 0.00 | 0.00 | 0.00 | 53 | 1018.1 |
| 20260510175408 | 56 | 46 | 9.0 | 14.0 | 0.00 | 0.00 | 0.00 | 53 | 1018.2 |
| 20260510175207 | 56 | 45 | 9.0 | 14.0 | 0.00 | 0.00 | 0.00 | 53 | 1018.2 |
| 20260510175007 | 56 | 45 | 9.0 | 14.0 | 0.00 | 0.00 | 0.00 | 52 | 1018.1 |
| 20260510174607 | 55 | 45 | 8.0 | 13.0 | 0.00 | 0.00 | 0.00 | 54 | 1018.2 |
| 20260510174407 | 55 | 45 | 8.0 | 14.0 | 0.00 | 0.00 | 0.00 | 54 | 1018.3 |
| 20260510174207 | 55 | 45 | 7.0 | 15.0 | 0.00 | 0.00 | 0.00 | 54 | 1018.2 |
| 20260510174007 | 56 | 45 | 6.0 | 15.0 | 0.00 | 0.00 | 0.00 | 54 | 1018.2 |
| 20260510173807 | 56 | 45 | 6.0 | 15.0 | 0.00 | 0.00 | 0.00 | 53 | 1018.2 |
| 20260510173407 | 56 | 45 | 6.0 | 15.0 | 0.00 | 0.00 | 0.00 | 52 | 1018.2 |
| 20260510173207 | 56 | 46 | 6.0 | 13.0 | 0.00 | 0.00 | 0.00 | 54 | 1018.2 |
| 20260510173007 | 56 | 46 | 7.0 | 13.0 | 0.00 | 0.00 | 0.00 | 53 | 1018.2 |
| 20260510172807 | 56 | 46 | 7.0 | 13.0 | 0.00 | 0.00 | 0.00 | 52 | 1018.1 |
| 20260510172607 | 57 | 46 | 8.0 | 12.0 | 0.00 | 0.00 | 0.00 | 54 | 1018.2 |
| 20260510172407 | 57 | 46 | 9.0 | 12.0 | 0.00 | 0.00 | 0.00 | 55 | 1018.3 |
| 20260510172207 | 57 | 46 | 9.0 | 14.0 | 0.00 | 0.00 | 0.00 | 54 | 1018.2 |
| 20260510172007 | 57 | 45 | 9.0 | 14.0 | 0.00 | 0.00 | 0.00 | 51 | 1018.2 |
| 20260510171807 | 57 | 46 | 9.0 | 15.0 | 0.00 | 0.00 | 0.00 | 53 | 1018.2 |
| 20260510171407 | 57 | 46 | 9.0 | 17.0 | 0.00 | 0.00 | 0.00 | 51 | 1018.3 |
| 20260510171007 | 58 | 46 | 9.0 | 17.0 | 0.00 | 0.00 | 0.00 | 51 | 1018.3 |
| 20260510170807 | 58 | 46 | 9.0 | 17.0 | 0.00 | 0.00 | 0.00 | 50 | 1018.3 |
| 20260510170607 | 58 | 45 | 8.0 | 17.0 | 0.00 | 0.00 | 0.00 | 51 | 1018.3 |
| 20260510170408 | 58 | 45 | 8.0 | 18.0 | 0.00 | 0.00 | 0.00 | 52 | 1018.3 |
| 20260510170207 | 58 | 46 | 8.0 | 18.0 | 0.00 | 0.00 | 0.00 | 52 | 1018.3 |
| 20260510165807 | 58 | 45 | 7.0 | 18.0 | 0.00 | 0.00 | 0.00 | 51 | 1018.3 |
| 20260510165607 | 58 | 45 | 7.0 | 18.0 | 0.00 | 0.00 | 0.00 | 51 | 1018.4 |
| 20260510165207 | 58 | 46 | 8.0 | 15.0 | 0.00 | 0.00 | 0.00 | 51 | 1018.5 |
| 20260510165007 | 58 | 46 | 8.0 | 13.0 | 0.00 | 0.00 | 0.00 | 52 | 1018.4 |
| 20260510164807 | 57 | 45 | 8.0 | 15.0 | 0.00 | 0.00 | 0.00 | 53 | 1018.6 |
| 20260510164407 | 57 | 46 | 8.0 | 15.0 | 0.00 | 0.00 | 0.00 | 52 | 1018.6 |
| 20260510164207 | 57 | 45 | 8.0 | 16.0 | 0.00 | 0.00 | 0.00 | 51 | 1018.7 |
| 20260510164007 | 57 | 46 | 8.0 | 16.0 | 0.00 | 0.00 | 0.00 | 51 | 1018.7 |
| 20260510163407 | 56 | 45 | 8.0 | 16.0 | 0.00 | 0.00 | 0.00 | 50 | 1018.8 |
| 20260510163207 | 56 | 45 | 8.0 | 16.0 | 0.00 | 0.00 | 0.00 | 50 | 1018.8 |
| 20260510163007 | 57 | 45 | 8.0 | 15.0 | 0.00 | 0.00 | 0.00 | 50 | 1018.8 |
| 20260510162807 | 57 | 45 | 8.0 | 15.0 | 0.00 | 0.00 | 0.00 | 49 | 1018.8 |
| 20260510162607 | 58 | 45 | 8.0 | 15.0 | 0.00 | 0.00 | 0.00 | 48 | 1018.8 |
| 20260510162407 | 58 | 45 | 8.0 | 15.0 | 0.00 | 0.00 | 0.00 | 48 | 1018.8 |
| 20260510162207 | 57 | 45 | 8.0 | 15.0 | 0.00 | 0.00 | 0.00 | 49 | 1018.7 |
| 20260510162007 | 57 | 45 | 9.0 | 15.0 | 0.00 | 0.00 | 0.00 | 50 | 1018.8 |
| 20260510161807 | 56 | 46 | 9.0 | 14.0 | 0.00 | 0.00 | 0.00 | 50 | 1018.8 |
| 20260510161607 | 56 | 46 | 9.0 | 15.0 | 0.00 | 0.00 | 0.00 | 52 | 1018.9 |
| 20260510161407 | 56 | 45 | 10.0 | 15.0 | 0.00 | 0.00 | 0.00 | 51 | 1018.9 |
| 20260510161007 | 56 | 46 | 10.0 | 15.0 | 0.00 | 0.00 | 0.00 | 49 | 1018.9 |
| 20260510160807 | 56 | 46 | 10.0 | 15.0 | 0.00 | 0.00 | 0.00 | 50 | 1019.0 |
| 20260510160207 | 56 | 46 | 9.0 | 17.0 | 0.00 | 0.00 | 0.00 | 48 | 1018.9 |
| 20260510155606 | 58 | 45 | 10.0 | 16.0 | 0.00 | 0.00 | 0.00 | 47 | 1019.0 |
| 20260510155207 | 58 | 46 | 11.0 | 16.0 | 0.00 | 0.00 | 0.00 | 48 | 1018.9 |
| 20260510155008 | 57 | 46 | 11.0 | 16.0 | 0.00 | 0.00 | 0.00 | 49 | 1019.0 |
| 20260510154807 | 57 | 45 | 11.0 | 16.0 | 0.00 | 0.00 | 0.00 | 50 | 1019.0 |
| 20260510154607 | 56 | 46 | 10.0 | 16.0 | 0.00 | 0.00 | 0.00 | 47 | 1019.1 |
| 20260510154407 | 56 | 45 | 10.0 | 16.0 | 0.00 | 0.00 | 0.00 | 49 | 1019.1 |
| 20260510154207 | 56 | 46 | 10.0 | 15.0 | 0.00 | 0.00 | 0.00 | 50 | 1019.2 |
| 20260510154007 | 56 | 46 | 9.0 | 15.0 | 0.00 | 0.00 | 0.00 | 49 | 1019.2 |
| 20260510153807 | 56 | 46 | 9.0 | 15.0 | 0.00 | 0.00 | 0.00 | 48 | 1019.1 |
| 20260510153607 | 56 | 45 | 9.0 | 15.0 | 0.00 | 0.00 | 0.00 | 49 | 1019.2 |
| 20260510153407 | 56 | 45 | 9.0 | 15.0 | 0.00 | 0.00 | 0.00 | 49 | 1019.1 |
| 20260510153207 | 56 | 46 | 9.0 | 15.0 | 0.00 | 0.00 | 0.00 | 50 | 1019.1 |
| 20260510153007 | 57 | 45 | 9.0 | 15.0 | 0.00 | 0.00 | 0.00 | 46 | 1019.1 |
| 20260510152807 | 57 | 45 | 9.0 | 15.0 | 0.00 | 0.00 | 0.00 | 47 | 1019.3 |
| 20260510152607 | 57 | 45 | 9.0 | 19.0 | 0.00 | 0.00 | 0.00 | 47 | 1019.2 |
| 20260510152407 | 57 | 45 | 9.0 | 19.0 | 0.00 | 0.00 | 0.00 | 48 | 1019.3 |
| 20260510152207 | 56 | 45 | 9.0 | 19.0 | 0.00 | 0.00 | 0.00 | 49 | 1019.4 |
| 20260510152007 | 56 | 46 | 9.0 | 19.0 | 0.00 | 0.00 | 0.00 | 48 | 1019.3 |
| 20260510151807 | 56 | 46 | 9.0 | 19.0 | 0.00 | 0.00 | 0.00 | 50 | 1019.4 |
| 20260510151607 | 57 | 45 | 9.0 | 14.0 | 0.00 | 0.00 | 0.00 | 49 | 1019.4 |
| 20260510151407 | 57 | 45 | 9.0 | 14.0 | 0.00 | 0.00 | 0.00 | 48 | 1019.5 |
| 20260510151207 | 57 | 46 | 9.0 | 15.0 | 0.00 | 0.00 | 0.00 | 49 | 1019.5 |
| 20260510151007 | 57 | 45 | 9.0 | 15.0 | 0.00 | 0.00 | 0.00 | 48 | 1019.4 |
| 20260510150807 | 57 | 45 | 9.0 | 15.0 | 0.00 | 0.00 | 0.00 | 47 | 1019.6 |
| 20260510150607 | 57 | 45 | 8.0 | 15.0 | 0.00 | 0.00 | 0.00 | 45 | 1019.6 |
| 20260510150407 | 57 | 46 | 8.0 | 15.0 | 0.00 | 0.00 | 0.00 | 47 | 1019.7 |
| 20260510150207 | 57 | 45 | 8.0 | 13.0 | 0.00 | 0.00 | 0.00 | 47 | 1019.6 |
| 20260510150007 | 57 | 45 | 8.0 | 14.0 | 0.00 | 0.00 | 0.00 | 46 | 1019.7 |
| 20260510145607 | 58 | 46 | 9.0 | 16.0 | 0.00 | 0.00 | 0.00 | 46 | 1019.9 |
| 20260510145407 | 58 | 46 | 9.0 | 16.0 | 0.00 | 0.00 | 0.00 | 49 | 1019.9 |
| 20260510145007 | 58 | 45 | 10.0 | 16.0 | 0.00 | 0.00 | 0.00 | 48 | 1019.8 |
| 20260510144807 | 58 | 45 | 10.0 | 15.0 | 0.00 | 0.00 | 0.00 | 48 | 1019.8 |
| 20260510144607 | 58 | 45 | 10.0 | 17.0 | 0.00 | 0.00 | 0.00 | 46 | 1019.8 |
| 20260510144206 | 58 | 45 | 10.0 | 17.0 | 0.00 | 0.00 | 0.00 | 49 | 1019.9 |
| 20260510144006 | 57 | 45 | 10.0 | 17.0 | 0.00 | 0.00 | 0.00 | 47 | 1019.9 |
| 20260510143807 | 57 | 46 | 10.0 | 17.0 | 0.00 | 0.00 | 0.00 | 44 | 1019.9 |
| 20260510143607 | 57 | 45 | 10.0 | 17.0 | 0.00 | 0.00 | 0.00 | 46 | 1020.0 |
| 20260510143407 | 57 | 45 | 10.0 | 20.0 | 0.00 | 0.00 | 0.00 | 46 | 1020.0 |
| 20260510143207 | 57 | 45 | 10.0 | 20.0 | 0.00 | 0.00 | 0.00 | 46 | 1020.1 |
| 20260510143007 | 57 | 45 | 9.0 | 20.0 | 0.00 | 0.00 | 0.00 | 45 | 1020.0 |
| 20260510142807 | 57 | 46 | 9.0 | 20.0 | 0.00 | 0.00 | 0.00 | 46 | 1020.2 |
| 20260510142407 | 57 | 46 | 8.0 | 16.0 | 0.00 | 0.00 | 0.00 | 46 | 1020.2 |
| 20260510141808 | 56 | 45 | 8.0 | 15.0 | 0.00 | 0.00 | 0.00 | 47 | 1019.9 |
| 20260510141609 | 56 | 45 | 8.0 | 15.0 | 0.00 | 0.00 | 0.00 | 47 | 1019.8 |
| 20260510141208 | 56 | 45 | 8.0 | 21.0 | 0.00 | 0.00 | 0.00 | 47 | 1020.0 |
| 20260510141008 | 56 | 45 | 7.0 | 21.0 | 0.00 | 0.00 | 0.00 | 47 | 1020.1 |
| 20260510140608 | 57 | 45 | 7.0 | 21.0 | 0.00 | 0.00 | 0.00 | 48 | 1020.1 |
| 20260510140408 | 58 | 45 | 8.0 | 21.0 | 0.00 | 0.00 | 0.00 | 52 | 1020.0 |
| 20260510140208 | 58 | 45 | 8.0 | 12.0 | 0.00 | 0.00 | 0.00 | 49 | 1019.9 |
| 20260510135808 | 57 | 46 | 9.0 | 13.0 | 0.00 | 0.00 | 0.00 | 50 | 1020.1 |
| 20260510135610 | 56 | 45 | 9.0 | 18.0 | 0.00 | 0.00 | 0.00 | 51 | 1020.1 |
| 20260510135409 | 56 | 46 | 8.0 | 18.0 | 0.00 | 0.00 | 0.00 | 52 | 1020.1 |
| 20260510135008 | 56 | 45 | 8.0 | 18.0 | 0.00 | 0.00 | 0.00 | 46 | 1020.1 |
| 20260510134808 | 57 | 46 | 8.0 | 18.0 | 0.00 | 0.00 | 0.00 | 46 | 1020.1 |
| 20260510134608 | 57 | 45 | 8.0 | 16.0 | 0.00 | 0.00 | 0.00 | 48 | 1020.2 |
| 20260510134409 | 57 | 46 | 9.0 | 13.0 | 0.00 | 0.00 | 0.00 | 48 | 1020.2 |
| 20260510134208 | 57 | 45 | 9.0 | 13.0 | 0.00 | 0.00 | 0.00 | 49 | 1020.2 |
| 20260510134008 | 57 | 46 | 9.0 | 13.0 | 0.00 | 0.00 | 0.00 | 49 | 1020.1 |
| 20260510133808 | 57 | 45 | 9.0 | 16.0 | 0.00 | 0.00 | 0.00 | 49 | 1020.5 |
| 20260510133608 | 57 | 46 | 9.0 | 16.0 | 0.00 | 0.00 | 0.00 | 51 | 1020.5 |
| 20260510133408 | 56 | 46 | 9.0 | 16.0 | 0.00 | 0.00 | 0.00 | 49 | 1020.5 |
| 20260510133207 | 56 | 46 | 9.0 | 16.0 | 0.00 | 0.00 | 0.00 | 50 | 1020.5 |
| 20260510133008 | 56 | 45 | 9.0 | 16.0 | 0.00 | 0.00 | 0.00 | 50 | 1020.5 |
| 20260510132808 | 56 | 46 | 9.0 | 14.0 | 0.00 | 0.00 | 0.00 | 50 | 1020.5 |
| 20260510132608 | 56 | 46 | 9.0 | 14.0 | 0.00 | 0.00 | 0.00 | 50 | 1020.4 |
| 20260510132408 | 56 | 45 | 8.0 | 15.0 | 0.00 | 0.00 | 0.00 | 50 | 1020.4 |
| 20260510132208 | 56 | 46 | 8.0 | 15.0 | 0.00 | 0.00 | 0.00 | 51 | 1020.4 |
| 20260510131808 | 57 | 45 | 8.0 | 15.0 | 0.00 | 0.00 | 0.00 | 51 | 1020.5 |
| 20260510131609 | 56 | 45 | 8.0 | 15.0 | 0.00 | 0.00 | 0.00 | 49 | 1020.7 |
| 20260510131408 | 57 | 46 | 9.0 | 15.0 | 0.00 | 0.00 | 0.00 | 52 | 1020.7 |
| 20260510131208 | 56 | 46 | 9.0 | 15.0 | 0.00 | 0.00 | 0.00 | 55 | 1020.7 |
| 20260510130808 | 55 | 46 | 10.0 | 15.0 | 0.00 | 0.00 | 0.00 | 50 | 1020.8 |
| 20260510130609 | 55 | 45 | 10.0 | 15.0 | 0.00 | 0.00 | 0.00 | 51 | 1020.8 |
| 20260510130408 | 55 | 45 | 10.0 | 15.0 | 0.00 | 0.00 | 0.00 | 54 | 1020.8 |
| 20260510130208 | 55 | 45 | 11.0 | 17.0 | 0.00 | 0.00 | 0.00 | 52 | 1020.8 |
| 20260510130008 | 56 | 45 | 10.0 | 17.0 | 0.00 | 0.00 | 0.00 | 53 | 1020.8 |
| 20260510125808 | 56 | 45 | 10.0 | 17.0 | 0.00 | 0.00 | 0.00 | 52 | 1020.9 |
| 20260510125609 | 56 | 45 | 9.0 | 17.0 | 0.00 | 0.00 | 0.00 | 57 | 1020.8 |
| 20260510125409 | 56 | 45 | 9.0 | 17.0 | 0.00 | 0.00 | 0.00 | 54 | 1020.9 |
| 20260510125208 | 57 | 45 | 9.0 | 17.0 | 0.00 | 0.00 | 0.00 | 54 | 1020.8 |
| 20260510124808 | 55 | 46 | 10.0 | 16.0 | 0.00 | 0.00 | 0.00 | 54 | 1020.8 |
| 20260510124608 | 55 | 46 | 10.0 | 16.0 | 0.00 | 0.00 | 0.00 | 55 | 1020.8 |
| 20260510124408 | 55 | 46 | 10.0 | 16.0 | 0.00 | 0.00 | 0.00 | 53 | 1021.0 |
| 20260510124209 | 55 | 45 | 10.0 | 16.0 | 0.00 | 0.00 | 0.00 | 55 | 1021.1 |
| 20260510124008 | 55 | 46 | 10.0 | 16.0 | 0.00 | 0.00 | 0.00 | 52 | 1021.0 |
| 20260510123808 | 55 | 45 | 10.0 | 16.0 | 0.00 | 0.00 | 0.00 | 52 | 1021.0 |
| 20260510123608 | 55 | 45 | 10.0 | 16.0 | 0.00 | 0.00 | 0.00 | 54 | 1021.1 |
| 20260510123209 | 55 | 46 | 11.0 | 16.0 | 0.00 | 0.00 | 0.00 | 52 | 1021.2 |
| 20260510123009 | 55 | 45 | 11.0 | 16.0 | 0.00 | 0.00 | 0.00 | 56 | 1021.1 |
| 20260510122810 | 55 | 45 | 11.0 | 18.0 | 0.00 | 0.00 | 0.00 | 57 | 1021.2 |
| 20260510122608 | 54 | 45 | 10.0 | 18.0 | 0.00 | 0.00 | 0.00 | 55 | 1021.2 |
| 20260510122408 | 54 | 46 | 10.0 | 18.0 | 0.00 | 0.00 | 0.00 | 55 | 1021.3 |
| 20260510122010 | 55 | 45 | 10.0 | 18.0 | 0.00 | 0.00 | 0.00 | 53 | 1021.3 |
| 20260510121809 | 55 | 45 | 10.0 | 16.0 | 0.00 | 0.00 | 0.00 | 53 | 1021.1 |
| 20260510121608 | 56 | 45 | 10.0 | 16.0 | 0.00 | 0.00 | 0.00 | 53 | 1021.1 |
| 20260510121408 | 56 | 45 | 10.0 | 16.0 | 0.00 | 0.00 | 0.00 | 56 | 1021.2 |
| 20260510121208 | 56 | 46 | 11.0 | 16.0 | 0.00 | 0.00 | 0.00 | 57 | 1021.2 |
| 20260510121008 | 56 | 46 | 11.0 | 16.0 | 0.00 | 0.00 | 0.00 | 55 | 1021.3 |
| 20260510120608 | 55 | 45 | 10.0 | 19.0 | 0.00 | 0.00 | 0.00 | 51 | 1021.5 |
| 20260510120409 | 55 | 45 | 10.0 | 20.0 | 0.00 | 0.00 | 0.00 | 52 | 1021.5 |
| 20260510120208 | 54 | 46 | 10.0 | 20.0 | 0.00 | 0.00 | 0.00 | 53 | 1021.3 |
| 20260510120008 | 54 | 45 | 10.0 | 20.0 | 0.00 | 0.00 | 0.00 | 56 | 1021.5 |
| 20260510115808 | 55 | 45 | 10.0 | 20.0 | 0.00 | 0.00 | 0.00 | 50 | 1021.6 |
| 20260510115608 | 54 | 45 | 10.0 | 20.0 | 0.00 | 0.00 | 0.00 | 52 | 1021.6 |
| 20260510115208 | 53 | 46 | 10.0 | 16.0 | 0.00 | 0.00 | 0.00 | 54 | 1021.5 |
| 20260510115007 | 53 | 45 | 9.0 | 16.0 | 0.00 | 0.00 | 0.00 | 49 | 1021.5 |
| 20260510114808 | 53 | 46 | 9.0 | 16.0 | 0.00 | 0.00 | 0.00 | 51 | 1021.6 |
| 20260510114608 | 53 | 46 | 9.0 | 16.0 | 0.00 | 0.00 | 0.00 | 50 | 1021.5 |
| 20260510114408 | 53 | 45 | 9.0 | 16.0 | 0.00 | 0.00 | 0.00 | 49 | 1021.7 |
| 20260510114208 | 54 | 45 | 9.0 | 14.0 | 0.00 | 0.00 | 0.00 | 51 | 1021.8 |
| 20260510114008 | 53 | 45 | 9.0 | 17.0 | 0.00 | 0.00 | 0.00 | 53 | 1021.7 |
| 20260510113808 | 53 | 45 | 8.0 | 17.0 | 0.00 | 0.00 | 0.00 | 54 | 1021.7 |
| 20260510113608 | 53 | 45 | 8.0 | 17.0 | 0.00 | 0.00 | 0.00 | 51 | 1021.8 |
| 20260510113408 | 54 | 45 | 8.0 | 17.0 | 0.00 | 0.00 | 0.00 | 51 | 1021.8 |
| 20260510113208 | 55 | 45 | 8.0 | 17.0 | 0.00 | 0.00 | 0.00 | 49 | 1021.8 |
| 20260510113008 | 55 | 45 | 9.0 | 12.0 | 0.00 | 0.00 | 0.00 | 54 | 1021.7 |
| 20260510112808 | 55 | 45 | 9.0 | 13.0 | 0.00 | 0.00 | 0.00 | 58 | 1021.8 |
| 20260510112408 | 53 | 45 | 9.0 | 15.0 | 0.00 | 0.00 | 0.00 | 54 | 1021.9 |
| 20260510112208 | 53 | 45 | 9.0 | 15.0 | 0.00 | 0.00 | 0.00 | 54 | 1021.9 |
| 20260510112008 | 54 | 45 | 8.0 | 15.0 | 0.00 | 0.00 | 0.00 | 53 | 1021.9 |
| 20260510111808 | 54 | 45 | 8.0 | 15.0 | 0.00 | 0.00 | 0.00 | 55 | 1021.9 |
| 20260510111608 | 54 | 45 | 9.0 | 15.0 | 0.00 | 0.00 | 0.00 | 60 | 1022.0 |
| 20260510111408 | 53 | 45 | 9.0 | 14.0 | 0.00 | 0.00 | 0.00 | 59 | 1022.0 |
| 20260510111208 | 52 | 46 | 9.0 | 14.0 | 0.00 | 0.00 | 0.00 | 58 | 1022.1 |
| 20260510111008 | 52 | 45 | 10.0 | 14.0 | 0.00 | 0.00 | 0.00 | 58 | 1022.2 |
| 20260510110808 | 51 | 46 | 10.0 | 20.0 | 0.00 | 0.00 | 0.00 | 56 | 1022.3 |
| 20260510110608 | 51 | 45 | 10.0 | 20.0 | 0.00 | 0.00 | 0.00 | 55 | 1022.2 |
| 20260510110408 | 51 | 46 | 10.0 | 20.0 | 0.00 | 0.00 | 0.00 | 58 | 1022.2 |
| 20260510110208 | 51 | 46 | 9.0 | 20.0 | 0.00 | 0.00 | 0.00 | 58 | 1022.1 |
| 20260510110008 | 51 | 46 | 9.0 | 20.0 | 0.00 | 0.00 | 0.00 | 57 | 1022.2 |
| 20260510105808 | 51 | 45 | 9.0 | 18.0 | 0.00 | 0.00 | 0.00 | 57 | 1022.1 |
| 20260510105608 | 51 | 45 | 9.0 | 16.0 | 0.00 | 0.00 | 0.00 | 57 | 1022.1 |
| 20260510105408 | 51 | 45 | 9.0 | 16.0 | 0.00 | 0.00 | 0.00 | 56 | 1022.1 |
| 20260510105208 | 52 | 45 | 9.0 | 16.0 | 0.00 | 0.00 | 0.00 | 56 | 1022.2 |
| 20260510105008 | 52 | 45 | 9.0 | 15.0 | 0.00 | 0.00 | 0.00 | 57 | 1022.2 |
| 20260510104808 | 52 | 45 | 9.0 | 15.0 | 0.00 | 0.00 | 0.00 | 62 | 1022.2 |
| 20260510104608 | 51 | 46 | 9.0 | 15.0 | 0.00 | 0.00 | 0.00 | 60 | 1022.1 |
| 20260510104408 | 51 | 45 | 9.0 | 15.0 | 0.00 | 0.00 | 0.00 | 60 | 1022.1 |
| 20260510104208 | 51 | 45 | 10.0 | 15.0 | 0.00 | 0.00 | 0.00 | 58 | 1022.1 |
| 20260510103808 | 51 | 45 | 10.0 | 19.0 | 0.00 | 0.00 | 0.00 | 60 | 1022.3 |
| 20260510103608 | 51 | 45 | 10.0 | 19.0 | 0.00 | 0.00 | 0.00 | 60 | 1022.2 |
| 20260510103408 | 52 | 45 | 10.0 | 19.0 | 0.00 | 0.00 | 0.00 | 59 | 1022.2 |
| 20260510103208 | 52 | 45 | 10.0 | 19.0 | 0.00 | 0.00 | 0.00 | 58 | 1022.3 |
| 20260510103008 | 53 | 46 | 10.0 | 16.0 | 0.00 | 0.00 | 0.00 | 57 | 1022.3 |
| 20260510102808 | 53 | 46 | 11.0 | 16.0 | 0.00 | 0.00 | 0.00 | 58 | 1022.3 |
| 20260510102608 | 53 | 46 | 11.0 | 16.0 | 0.00 | 0.00 | 0.00 | 59 | 1022.2 |
| 20260510102408 | 53 | 45 | 11.0 | 16.0 | 0.00 | 0.00 | 0.00 | 58 | 1022.1 |
| 20260510102208 | 53 | 46 | 10.0 | 16.0 | 0.00 | 0.00 | 0.00 | 59 | 1022.3 |
| 20260510102008 | 53 | 46 | 10.0 | 16.0 | 0.00 | 0.00 | 0.00 | 57 | 1022.2 |
| 20260510101608 | 53 | 46 | 10.0 | 16.0 | 0.00 | 0.00 | 0.00 | 60 | 1022.3 |
| 20260510101407 | 53 | 45 | 10.0 | 16.0 | 0.00 | 0.00 | 0.00 | 59 | 1022.3 |
| 20260510101208 | 52 | 46 | 10.0 | 16.0 | 0.00 | 0.00 | 0.00 | 62 | 1022.3 |
| 20260510101008 | 51 | 45 | 10.0 | 16.0 | 0.00 | 0.00 | 0.00 | 62 | 1022.4 |
| 20260510100808 | 51 | 45 | 10.0 | 16.0 | 0.00 | 0.00 | 0.00 | 61 | 1022.4 |
| 20260510100608 | 51 | 46 | 10.0 | 16.0 | 0.00 | 0.00 | 0.00 | 59 | 1022.6 |
| 20260510100408 | 52 | 46 | 10.0 | 16.0 | 0.00 | 0.00 | 0.00 | 60 | 1022.6 |
| 20260510100208 | 52 | 46 | 10.0 | 16.0 | 0.00 | 0.00 | 0.00 | 59 | 1022.6 |
| 20260510100008 | 52 | 46 | 10.0 | 16.0 | 0.00 | 0.00 | 0.00 | 61 | 1022.6 |
| 20260510095608 | 52 | 46 | 11.0 | 16.0 | 0.00 | 0.00 | 0.00 | 63 | 1022.6 |
| 20260510095408 | 51 | 45 | 11.0 | 16.0 | 0.00 | 0.00 | 0.00 | 63 | 1022.6 |
| 20260510095208 | 51 | 46 | 11.0 | 17.0 | 0.00 | 0.00 | 0.00 | 64 | 1022.6 |
| 20260510095008 | 50 | 45 | 11.0 | 17.0 | 0.00 | 0.00 | 0.00 | 61 | 1022.6 |
| 20260510094608 | 51 | 45 | 11.0 | 17.0 | 0.00 | 0.00 | 0.00 | 60 | 1022.6 |
| 20260510094408 | 51 | 45 | 11.0 | 18.0 | 0.00 | 0.00 | 0.00 | 62 | 1022.6 |
| 20260510094208 | 51 | 45 | 11.0 | 18.0 | 0.00 | 0.00 | 0.00 | 62 | 1022.7 |
| 20260510094008 | 51 | 45 | 11.0 | 18.0 | 0.00 | 0.00 | 0.00 | 63 | 1022.7 |
| 20260510093808 | 51 | 46 | 11.0 | 18.0 | 0.00 | 0.00 | 0.00 | 62 | 1022.8 |
| 20260510093608 | 51 | 45 | 11.0 | 18.0 | 0.00 | 0.00 | 0.00 | 62 | 1022.8 |
| 20260510093408 | 51 | 45 | 11.0 | 17.0 | 0.00 | 0.00 | 0.00 | 62 | 1022.8 |
| 20260510093208 | 50 | 45 | 11.0 | 17.0 | 0.00 | 0.00 | 0.00 | 63 | 1022.8 |
| 20260510093008 | 50 | 45 | 11.0 | 18.0 | 0.00 | 0.00 | 0.00 | 62 | 1022.8 |
| 20260510092808 | 51 | 45 | 10.0 | 18.0 | 0.00 | 0.00 | 0.00 | 62 | 1022.8 |
| 20260510092608 | 51 | 45 | 10.0 | 18.0 | 0.00 | 0.00 | 0.00 | 61 | 1022.8 |
| 20260510092407 | 51 | 45 | 10.0 | 18.0 | 0.00 | 0.00 | 0.00 | 63 | 1022.9 |
| 20260510092208 | 51 | 45 | 10.0 | 18.0 | 0.00 | 0.00 | 0.00 | 61 | 1023.0 |
| 20260510092007 | 51 | 45 | 10.0 | 15.0 | 0.00 | 0.00 | 0.00 | 65 | 1022.8 |
| 20260510091808 | 51 | 45 | 10.0 | 15.0 | 0.00 | 0.00 | 0.00 | 64 | 1022.8 |
| 20260510091608 | 51 | 45 | 10.0 | 19.0 | 0.00 | 0.00 | 0.00 | 65 | 1022.8 |
| 20260510091208 | 51 | 45 | 9.0 | 19.0 | 0.00 | 0.00 | 0.00 | 63 | 1022.9 |
| 20260510091009 | 51 | 45 | 9.0 | 19.0 | 0.00 | 0.00 | 0.00 | 62 | 1022.9 |
| 20260510090808 | 51 | 45 | 8.0 | 19.0 | 0.00 | 0.00 | 0.00 | 60 | 1023.0 |
| 20260510090608 | 52 | 45 | 8.0 | 15.0 | 0.00 | 0.00 | 0.00 | 62 | 1023.0 |
| 20260510090407 | 52 | 45 | 9.0 | 15.0 | 0.00 | 0.00 | 0.00 | 63 | 1022.9 |
| 20260510090208 | 52 | 45 | 9.0 | 15.0 | 0.00 | 0.00 | 0.00 | 66 | 1022.9 |
| 20260510090010 | 52 | 45 | 10.0 | 15.0 | 0.00 | 0.00 | 0.00 | 66 | 1023.0 |
| 20260510085808 | 51 | 45 | 10.0 | 15.0 | 0.00 | 0.00 | 0.00 | 66 | 1023.1 |
| 20260510085608 | 51 | 45 | 11.0 | 19.0 | 0.00 | 0.00 | 0.00 | 66 | 1023.1 |
| 20260510085208 | 50 | 45 | 10.0 | 19.0 | 0.00 | 0.00 | 0.00 | 66 | 1023.0 |
| 20260510085008 | 50 | 45 | 10.0 | 19.0 | 0.00 | 0.00 | 0.00 | 65 | 1023.0 |
| 20260510084808 | 50 | 45 | 9.0 | 19.0 | 0.00 | 0.00 | 0.00 | 65 | 1023.1 |
| 20260510084608 | 50 | 45 | 9.0 | 17.0 | 0.00 | 0.00 | 0.00 | 65 | 1023.1 |
| 20260510084408 | 50 | 45 | 9.0 | 17.0 | 0.00 | 0.00 | 0.00 | 65 | 1023.1 |
| 20260510084208 | 50 | 45 | 9.0 | 14.0 | 0.00 | 0.00 | 0.00 | 67 | 1023.0 |
| 20260510084008 | 49 | 46 | 9.0 | 14.0 | 0.00 | 0.00 | 0.00 | 67 | 1023.0 |
| 20260510083808 | 49 | 45 | 9.0 | 15.0 | 0.00 | 0.00 | 0.00 | 66 | 1022.9 |
| 20260510083608 | 49 | 45 | 9.0 | 15.0 | 0.00 | 0.00 | 0.00 | 67 | 1023.0 |
| 20260510083208 | 48 | 46 | 8.0 | 15.0 | 0.00 | 0.00 | 0.00 | 67 | 1022.9 |
| 20260510083008 | 49 | 46 | 8.0 | 15.0 | 0.00 | 0.00 | 0.00 | 66 | 1023.0 |
| 20260510082808 | 49 | 46 | 8.0 | 14.0 | 0.00 | 0.00 | 0.00 | 69 | 1023.0 |
| 20260510082608 | 49 | 46 | 8.0 | 11.0 | 0.00 | 0.00 | 0.00 | 69 | 1023.0 |